Location: Dresden
(51.0483°N, 13.7137°E)
Time: 06:09:25
(UTC+01:00)

ISS - Pass Details

Date: 11 November 2017
Orbit: 402 x 407 km, 51.6° (Epoch: 19 November)

Event Time Altitude Azimuth Distance (km) Brightness Sun altitude
Exits shadow 05:10:04 86° 343° (NNW) 409 -4.0 -19.6°
Maximum altitude 05:10:05 86° 5° (N) 409 -4.0 -19.6°
Drops below altitude 10° 05:13:21 10° 99° (E) 1,456 0.2 -19.1°
Sets 05:15:26 0° 100° (E) 2,314 1.7 -18.7°
